Regional Weather Roundup
Issued by NWS Wakefield, VA

Home | Current Version | Previous Version | Text Only | Print | Product List | Glossary On
Versions: 1 2 3 4 5 6 7 8 9 10 11 12 13 14 15 16 17 18 19 20 21 22 23 24 25 26 27 28 29 30 31 32 33 34 35 36 37 38 39 40 41 42 43 44 45 46 47 48 49 50
000
ASUS41 KAKQ 220110
RWRAKQ

REGIONAL WEATHER ROUNDUP
NATIONAL WEATHER SERVICE WAKEFIELD VA
900 PM EDT SUN SEP 21 2014

Note: "fair" indicates few or no clouds below 12,000 feet with no
significant weather and/or obstructions to visibility. * = Denotes
station may not report precipitation (e.g., rain,snow,etc.),
thunder or fog.

VAZ042-051-052>054-056-220200-
NORTHERN VIRGINIA

CITY           SKY/WX    TMP DP  RH WIND       PRES   REMARKS
WASH NATIONAL  MOCLDY    80  60  50 S6        29.67R
DULLES         MOCLDY    75  59  57 NW16      29.70R
FORT BELVOIR   PTCLDY    71  67  87 S1        29.68R
QUANTICO       PTCLDY    73  67  81 NW6       29.68R
FREDERICKSBRG* MOCLDY    80  66  62 SW10      29.68R
STAFFORD*      MOCLDY    77  65  66 SW5       29.73R
WARRENTON      PTCLDY    69  69 100 CALM      29.69R
CULPEPER*      PTCLDY    77  66  69 CALM      29.70R
MANASSAS*      NOT AVBL
LEESBURG*      CLOUDY    75  61  60 NW14G20   29.71R
WINCHESTER     CLOUDY    73  55  53 W5        29.74R
FRONT ROYAL*   CLOUDY    73  59  60 W9        29.73R
LURAY*         CLOUDY    79  59  50 NW12G17   29.75R
$$

VAZ048-049-060>072-079>083-220200-
CENTRAL AND SOUTH CENTRAL VIRGINIA...AND NORTH CENTRAL NORTH CAROLINA

CITY           SKY/WX    TMP DP  RH WIND       PRES   REMARKS
RICHMOND       PTCLDY    80  65  59 SW12      29.73R
CHESTERFIELD*  PTCLDY    77  61  57 SW7       29.75S
PETERSBURG*    CLEAR     74  65  73 SW6       29.76R
HANOVER        PTCLDY    80  65  59 S12       29.73R
TAPPAHANNOCK*  PTCLDY    73  61  66 S6        29.70F
CHARLOTTSVILLE CLEAR     76  61  59 VRB3      29.73R
ORANGE*        PTCLDY    77  61  57 S12       29.73R
LOUISA*        PTCLDY    75  66  73 W8        29.72R
FARMVILLE*     PTCLDY    79  63  57 SW7       29.75R
CREWE*         PTCLDY    76  65  69 W3        29.77R
FORT PICKETT*  PTCLDY    75  67  75 SW9       29.77R
LUNENBURG*     CLEAR     76  67  75 SW3       29.78R
SOUTH HILL*    CLEAR     75  68  78 SW5       29.84R
LAWRENCEVILLE* CLEAR     71  67  87 SW6       29.78R
ROANOKE RAPIDS CLEAR     72  66  83 S6        29.79R
RALEIGH        PTCLDY    77  64  64 SW9       29.83R
$$

VAZ088>098-220200-
SOUTHEAST VIRGINIA

CITY           SKY/WX    TMP DP  RH WIND       PRES   REMARKS
NORFOLK        CLEAR     74  63  68 SW10      29.76R
VIRGINIA BEACH PTCLDY    74  62  66 SW10      29.76R
NORFOLK NAVAL  CLEAR     77  65  66 S8        29.77R
WEST POINT*    CLEAR     78  65  64 SW7       29.74R
NEWPORT NEWS   CLEAR     80  67  64 SW12      29.75R
LANGLEY AFB    PTCLDY    77  66  69 SW9       29.74R
FORT EUSTIS    PTCLDY    76  67  73 S7        29.73R
WILLIAMSBURG*  CLEAR     79  68  69 SW7       29.75S
HR EXEC AP*    CLEAR     72  64  78 SW7       29.79R
FRANKLIN*      CLEAR     73  66  78 SW7       29.78R
WAKEFIELD      CLEAR     74  67  78 SW6       29.76R
$$

VAZ020-022-025-037-045-220200-
WEST CENTRAL AND SOUTHWEST VIRGINIA

CITY           SKY/WX    TMP DP  RH WIND       PRES   REMARKS
STAUNTON*      LGT RAIN  69  61  74 W6        29.81R
HOT SPRINGS VA MOCLDY    60  45  56 W15G22    29.93R
LYNCHBURG      CLEAR     72  63  73 SW7G17    29.82R
DANVILLE       CLEAR     72  66  81 W6        29.83R
SOUTH BOSTON*  NOT AVBL
MARTINSVILLE   PTCLDY    70  67  90 CALM      29.87R
ROANOKE        MOCLDY    71  63  75 NW5       29.86R
BLACKSBURG     DRIZZLE   66  66 100 W5        29.91R
DUBLIN*        CLOUDY    69  63  81 W13G22    29.92R
MARION*        LGT RAIN  68  64  85 W13G18    29.96R
HILLSVILLE*    MOCLDY    66  61  82 SW7       29.94R
RICHLANDS*     LGT RAIN  67  64  90 W6        29.96R
WISE*          MOCLDY    64  63  94 NW9       30.00R
ABINGDON*      CLOUDY    69  68  98 W5        29.94S FOG
$$

MDZ021>025-VAZ099-100-220200-
SOUTHERN MARYLAND AND THE DELMARVA PENINSULA

CITY           SKY/WX    TMP DP  RH WIND       PRES   REMARKS
PATUXENT RIVER CLEAR     75  62  64 S8        29.68S
BAY BRIDGE APT   N/A     73  63  68 S6        29.67R
LEONARDTOWN    CLEAR     73  61  64 S7        29.70S
DOVER          MOCLDY    71  66  83 S8        29.66R
GEORGETOWN     CLEAR     72  64  76 S9        29.70R
EASTON         PTCLDY    75  64  69 CALM      29.71S
CAMBRIDGE      PTCLDY    72  63  73 S5        29.68S
SALISBURY      CLEAR     71  65  81 S7        29.70R
OCEAN CITY     CLEAR     71  65  81 W3        29.70R
WALLOPS ISLAND CLEAR     71  65  81 SW7       29.73R
ACCOMACK*      CLEAR     70  63  78 S7        29.73R
$$

NCZ012>017-030>032-220200-
EASTERN NORTH CAROLINA

CITY           SKY/WX    TMP DP  RH WIND       PRES   REMARKS
ELIZABETH CITY CLEAR     72  66  81 SW8       29.80R
AHOSKIE*       CLEAR     73  65  77 S3        29.80R
EDENTON*       CLEAR     74  67  78 SW7       29.81R
CURRITUCK*     CLEAR     73  64  74 S5        29.80R
KILL DEVIL HLS CLEAR     73  67  79 SW7       29.80R
MANTEO         CLEAR     73  67  80 SW10      29.82R
CAPE HATTERAS  CLEAR     74  67  78 W10       29.85R
TARBORO*       PTCLDY    75  66  73 S6        29.83R
GOLDSBORO      CLEAR     76  70  81 CALM      29.84R
WASHINGTON     CLEAR     74  65  72 SW6       29.83R
GREENVILLE     CLEAR     73  66  78 SW8       29.86R
NEW BERN       CLEAR     75  64  68 SW8       29.86R
WILMINGTON     CLEAR     76  67  73 SW9       29.89R
$$

VAZ048-220200-
ELSEWHERE

CITY           SKY/WX    TMP DP  RH WIND       PRES   REMARKS
HARRISBURG PA  CLOUDY    71  65  81 SW9       29.65R
BALTIMORE      PTCLDY    71  66  84 SE3       29.65S
ANNAPOLIS      PTCLDY    73  64  73 CALM      29.66S
ANDREWS AFB    MOCLDY    73  62  68 NW9       29.67S
WILMINGTON DE  CLEAR     72  66  81 S5        29.66S
PHILADELPHIA   MOCLDY    73  65  75 S6        29.65S
WILDWOOD NJ*   CLEAR     66  63  88 S5        29.69S
ATLANTIC CITY  CLEAR     70  68  93 SW7       29.67R
HENDERSON NC   PTCLDY    73  63  72 SW7       29.81R
GREENSBORO     LGT RAIN  73  66  78 SW17G28   29.87R
ROCKY MOUNT    CLEAR     74  66  76 SW7       29.83R
FAYETTEVILLE   CLEAR     76  64  66 SW7       29.86R
CHARLOTTE      MOCLDY    76  64  66 SW6       29.88S
$$

VAZ100-220200-
MARINE

STATION/POSITION TIME  TEMP    WIND        PRES    WAVE   SWELL
                       AIR SEA DIR/SP/G            HT/PER HT/PER
                 (UTC) (F)     (DEG/KT/KT) (MB)    (FT/S) (FT/S)
44066 TX TWR #4  0100   70 71  320/  8/ 10 1002.7R   4/ 7   5/ 7
CAPE MAY NJ      0100   70 76  160/  4/  5 1004.5F
LEWES DE         0100   71 72  210/  5/  7 1004.9F
15NM E FENWICK I 0100   72 72              1005.6R   4/ 8
OCEAN-CITY-INLET 0100   72 72  260/  6/  7 1005.6S
WACHAPREAGUE VA  0100   73 75  240/  5/  7 1006.7R
THOMAS POINT MD  0100   75 74  180/ 13/ 14 1005.3S
GOOSES REEF MD   0100   76     200/ 12/ 14 1005.3S
COVE POINT MD    0100   75     190/ 12/ 13 1004.9F
SOLOMONS ISLAND  0100      76                N/A
BISHOPS HEAD MD  0100   74 74  180/ 10/ 13 1005.0F
PINEY POINT MD   0100          210/ 12/ 13   N/A
POTOMAC MD       0100   76     190/ 10/ 12 1005.0S
CAMBRIDGE MD     0100   72 74  180/  5/  8 1004.8F
LEWISETTA VA     0100   76 76  210/ 11/ 13 1005.1S
RAPPAHANNOCK LGT 0100          200/ 16/ 17 1006.9R
STINGRAY PT      0100   77     220/ 12/ 14   N/A
YORK RVR RNG VA  0100   78     230/ 15/ 19 1006.4R
YORKTOWN VA      0100   77 76  220/  9/ 11 1006.6R
JAMESTOWN VA     0100   75     230/ 10/ 12   N/A
DOMINION TERM VA 0100   77     220/ 11/ 13 1007.5R
KIPTOPEKE VA     0100      79  210/ 10/ 11   N/A
CHES BAY BRIDGE  0100   77 75  200/ 12/ 13 1007.0R
CAPE HENRY VA    0100   75     200/  7/ 10 1006.5R
CHESAPEAKE LGHT  0000   77     230/ 15/ 16 1007.8R
WILLOUBY STN VA  0100   78     220/ 14/ 15 1006.3R
S CRANEY ISL VA  0100          180/  8/ 12 1007.4R
CAPE HENRY BUOY  0000      75                N/A     3/ 9
1ST LANDING BUOY 0100   77     220/ 10/ 14 1007.2R
CAPE CHARLES BUO 0100      74                N/A     3/ 8   3/ 8
OFFSHORE WE BUOY 0100      74                N/A     4/ 8   3/ 8
64NM E OF VA BCH 0100   75 77  230/ 14/ 17 1007.8R   5/ 8   3/ 8
DUCK PIER NC     0100   76 74  220/  9/ 12 1008.3R
44100 DUCK FRF   0100      74                N/A     4/ 8   2/11
44056 DUCK FRF   0100                        N/A     4/ 8
OREGON INLET NC  0100   76 76  220/ 13/ 15 1009.5R
DIAMOND SHLS NC  0100   79     240/ 17/ 23 1010.4R   6/10   5/10
CAPE LOOKOUT NC  0000   78     230/  9/ 12 1010.9R
$$


USA.gov is the U.S. government's official web portal to all federal, state and local government web resources and services.